Location: Dal�� Lhota
(48.7500°N, 14.0167°E)
Time: 18:59:10
(UTC+00:00)

Transit 2A - Pass Details

Date: 01 August 2021
Orbit: 594 x 964 km, 66.7° (Epoch: 27 September)

Event Time Altitude Azimuth Distance (km) Brightness Sun altitude
Rises 06:57:05 0° 251° (WSW) 2,868 8.5 30.9°
Reaches altitude 10° 06:59:34 10° 264° (W) 1,999 7.8 31.3°
Maximum altitude 07:03:23 26° 323° (NW) 1,278 7.0 31.9°
Drops below altitude 10° 07:07:28 10° 20° (NNE) 2,158 8.6 32.6°
Sets 07:10:16 0° 33° (NNE) 3,147 9.4 33.0°
